| time (UTC) | temp C | wind direction | speed KPH | gust KPH | rain 1hr cm | rain 24hr cm | rain mn cm | humidity % | barometer mb |
| 20260507170004 | 15 | 153 | 1.6 | 8.0 | 0.00 | 0.00 | 0.00 | 57 | 1022.5 |
| 20260507165504 | 15 | 200 | 3.2 | 8.0 | 0.00 | 0.00 | 0.00 | 58 | 1022.6 |
| 20260507165004 | 15 | 253 | 1.6 | 8.0 | 0.00 | 0.00 | 0.00 | 54 | 1022.8 |
| 20260507164504 | 15 | 210 | 0.0 | 9.7 | 0.00 | 0.00 | 0.00 | 56 | 1022.7 |
| 20260507164004 | 15 | 232 | 1.6 | 9.7 | 0.00 | 0.00 | 0.00 | 56 | 1022.8 |
| 20260507163504 | 16 | 318 | 3.2 | 9.7 | 0.00 | 0.00 | 0.00 | 54 | 1022.7 |
| 20260507163004 | 16 | 268 | 1.6 | 4.8 | 0.00 | 0.00 | 0.00 | 55 | 1022.5 |
| 20260507162504 | 17 | 278 | 1.6 | 8.0 | 0.00 | 0.00 | 0.00 | 55 | 1022.6 |
| 20260507162004 | 17 | 296 | 3.2 | 8.0 | 0.00 | 0.00 | 0.00 | 56 | 1022.6 |
| 20260507161504 | 18 | 305 | 3.2 | 8.0 | 0.00 | 0.00 | 0.00 | 54 | 1022.3 |
| 20260507161004 | 17 | 204 | 0.0 | 9.7 | 0.00 | 0.00 | 0.00 | 56 | 1022.5 |
| 20260507160505 | 16 | 59 | 1.6 | 9.7 | 0.00 | 0.00 | 0.00 | 53 | 1022.6 |
| 20260507160004 | 16 | 253 | 1.6 | 8.0 | 0.00 | 0.00 | 0.00 | 55 | 1022.5 |
| 20260507155504 | 14 | 172 | 0.0 | 8.0 | 0.00 | 0.00 | 0.00 | 62 | 1022.6 |
| 20260507155005 | 14 | 119 | 4.8 | 8.0 | 0.00 | 0.00 | 0.00 | 66 | 1022.7 |
| 20260507154504 | 15 | 136 | 1.6 | 11.3 | 0.00 | 0.00 | 0.00 | 66 | 1022.9 |
| 20260507154004 | 16 | 158 | 1.6 | 11.3 | 0.00 | 0.00 | 0.00 | 62 | 1022.8 |
| 20260507153505 | 16 | 159 | 3.2 | 11.3 | 0.00 | 0.00 | 0.00 | 63 | 1022.9 |
| 20260507153004 | 16 | 144 | 1.6 | 11.3 | 0.00 | 0.00 | 0.00 | 61 | 1023.1 |
| 20260507152504 | 15 | 292 | 1.6 | 8.0 | 0.00 | 0.00 | 0.00 | 61 | 1023.2 |
| 20260507152004 | 16 | 135 | 3.2 | 8.0 | 0.00 | 0.00 | 0.00 | 65 | 1023.2 |
| 20260507151505 | 15 | 125 | 3.2 | 8.0 | 0.00 | 0.00 | 0.00 | 70 | 1023.2 |
| 20260507151004 | 15 | 158 | 1.6 | 8.0 | 0.00 | 0.00 | 0.00 | 70 | 1023.1 |
| 20260507150504 | 15 | 124 | 1.6 | 9.7 | 0.00 | 0.00 | 0.00 | 70 | 1023.3 |
| 20260507150004 | 14 | 135 | 3.2 | 9.7 | 0.00 | 0.00 | 0.00 | 77 | 1023.0 |
| 20260507145504 | 14 | 148 | 1.6 | 8.0 | 0.00 | 0.00 | 0.00 | 72 | 1023.3 |
| 20260507145004 | 14 | 156 | 3.2 | 9.7 | 0.00 | 0.00 | 0.00 | 78 | 1023.1 |
| 20260507144504 | 13 | 146 | 1.6 | 11.3 | 0.00 | 0.00 | 0.00 | 77 | 1023.1 |
| 20260507144007 | 13 | 113 | 1.6 | 11.3 | 0.00 | 0.00 | 0.00 | 75 | 1023.4 |
| 20260507143504 | 13 | 129 | 4.8 | 11.3 | 0.00 | 0.00 | 0.00 | 77 | 1023.2 |
| 20260507143005 | 13 | 122 | 3.2 | 11.3 | 0.00 | 0.00 | 0.00 | 77 | 1023.2 |
| 20260507142505 | 13 | 128 | 4.8 | 9.7 | 0.00 | 0.00 | 0.00 | 78 | 1023.3 |
| 20260507142004 | 13 | 148 | 3.2 | 8.0 | 0.00 | 0.00 | 0.00 | 77 | 1023.1 |
| 20260507141504 | 12 | 112 | 1.6 | 8.0 | 0.00 | 0.00 | 0.00 | 80 | 1023.1 |
| 20260507141007 | 12 | 149 | 1.6 | 8.0 | 0.00 | 0.03 | 0.00 | 83 | 1023.2 |
| 20260507140504 | 11 | 177 | 1.6 | 4.8 | 0.00 | 0.03 | 0.00 | 83 | 1023.3 |
| 20260507140005 | 11 | 141 | 1.6 | 8.0 | 0.00 | 0.03 | 0.00 | 84 | 1022.9 |
| 20260507135504 | 11 | 166 | 1.6 | 8.0 | 0.00 | 0.03 | 0.00 | 84 | 1023.0 |
| 20260507135005 | 11 | 128 | 1.6 | 8.0 | 0.00 | 0.03 | 0.00 | 85 | 1023.1 |
| 20260507134504 | 11 | 132 | 1.6 | 8.0 | 0.00 | 0.05 | 0.00 | 86 | 1023.2 |
| 20260507134004 | 10 | 122 | 3.2 | 4.8 | 0.00 | 0.05 | 0.00 | 88 | 1023.2 |
| 20260507133507 | 10 | 246 | 3.2 | 4.8 | 0.00 | 0.05 | 0.00 | 90 | 1023.2 |
| 20260507133004 | 10 | 227 | 1.6 | 3.2 | 0.00 | 0.05 | 0.00 | 93 | 1023.1 |
| 20260507132504 | 9 | 128 | 0.0 | 3.2 | 0.00 | 0.05 | 0.00 | 95 | 1023.0 |
| 20260507132004 | 9 | 169 | 0.0 | 3.2 | 0.00 | 0.05 | 0.00 | 96 | 1023.2 |
| 20260507131505 | 9 | 122 | 0.0 | 3.2 | 0.00 | 0.05 | 0.00 | 97 | 1022.8 |
| 20260507131003 | 9 | 199 | 1.6 | 3.2 | 0.00 | 0.05 | 0.00 | 97 | 1022.9 |
| 20260507130004 | 8 | 236 | 1.6 | 4.8 | 0.00 | 0.05 | 0.00 | 99 | 1022.3 |
| 20260507122005 | 8 | 112 | 0.0 | 0.0 | 0.00 | 0.05 | 0.00 | 99 | 1021.8 |
| 20260507121505 | 8 | 112 | 0.0 | 0.0 | 0.00 | 0.05 | 0.00 | 99 | 1021.8 |
| 20260507121004 | 7 | 112 | 0.0 | 0.0 | 0.00 | 0.05 | 0.00 | 99 | 1021.8 |
| 20260507120504 | 8 | 112 | 0.0 | 3.2 | 0.00 | 0.10 | 0.00 | 99 | 1021.9 |
| 20260507120005 | 8 | 123 | 0.0 | 3.2 | 0.00 | 0.10 | 0.00 | 99 | 1021.9 |
| 20260507115505 | 8 | 113 | 1.6 | 3.2 | 0.00 | 0.10 | 0.00 | 99 | 1021.9 |
| 20260507115004 | 7 | 112 | 0.0 | 0.0 | 0.00 | 0.10 | 0.00 | 99 | 1021.7 |
| 20260507114504 | 7 | 112 | 0.0 | 0.0 | 0.00 | 0.10 | 0.00 | 99 | 1021.7 |
| 20260507113004 | 8 | 112 | 0.0 | 0.0 | 0.00 | 0.10 | 0.00 | 99 | 1021.8 |
| 20260507112503 | 8 | 112 | 0.0 | 0.0 | 0.00 | 0.10 | 0.00 | 99 | 1021.9 |
| 20260507112004 | 9 | 124 | 0.0 | 0.0 | 0.00 | 0.10 | 0.00 | 99 | 1022.0 |
| 20260507111504 | 9 | 121 | 0.0 | 0.0 | 0.00 | 0.10 | 0.00 | 99 | 1021.8 |
| 20260507103504 | 8 | 112 | 0.0 | 0.0 | 0.00 | 0.30 | 0.00 | 99 | 1021.4 |
| 20260507103004 | 8 | 112 | 0.0 | 0.0 | 0.00 | 0.33 | 0.00 | 99 | 1021.2 |
| 20260507102503 | 8 | 112 | 0.0 | 0.0 | 0.00 | 0.36 | 0.00 | 99 | 1021.1 |
| 20260507102003 | 8 | 112 | 0.0 | 0.0 | 0.00 | 0.38 | 0.00 | 99 | 1021.1 |
| 20260507101503 | 8 | 112 | 0.0 | 0.0 | 0.00 | 0.46 | 0.00 | 99 | 1021.1 |
| 20260507101003 | 8 | 112 | 0.0 | 0.0 | 0.00 | 0.51 | 0.00 | 99 | 1021.1 |
| 20260507100504 | 8 | 135 | 0.0 | 0.0 | 0.00 | 0.56 | 0.00 | 98 | 1021.0 |
| 20260507100003 | 8 | 135 | 0.0 | 0.0 | 0.00 | 0.56 | 0.00 | 98 | 1021.0 |
| 20260507095503 | 8 | 135 | 0.0 | 0.0 | 0.00 | 0.56 | 0.00 | 98 | 1020.9 |
| 20260507095004 | 8 | 125 | 0.0 | 0.0 | 0.00 | 0.56 | 0.00 | 98 | 1020.8 |
| 20260507094504 | 9 | 132 | 0.0 | 0.0 | 0.00 | 0.56 | 0.00 | 98 | 1020.8 |
| 20260507094003 | 8 | 123 | 0.0 | 0.0 | 0.00 | 0.56 | 0.00 | 98 | 1020.8 |
| 20260507093503 | 9 | 112 | 0.0 | 0.0 | 0.00 | 0.56 | 0.00 | 98 | 1020.8 |
| 20260507093004 | 9 | 112 | 0.0 | 0.0 | 0.00 | 0.56 | 0.00 | 98 | 1020.7 |
| 20260507092504 | 9 | 112 | 0.0 | 0.0 | 0.00 | 0.61 | 0.00 | 98 | 1020.8 |
| 20260507092006 | 9 | 129 | 0.0 | 0.0 | 0.00 | 0.61 | 0.00 | 98 | 1020.8 |
| 20260507091503 | 9 | 107 | 0.0 | 0.0 | 0.00 | 0.61 | 0.00 | 97 | 1021.0 |
| 20260507091003 | 8 | 127 | 0.0 | 0.0 | 0.00 | 0.61 | 0.00 | 97 | 1020.7 |
| 20260507090503 | 8 | 112 | 0.0 | 0.0 | 0.00 | 0.61 | 0.00 | 97 | 1020.6 |
| 20260507090004 | 8 | 112 | 0.0 | 0.0 | 0.00 | 0.61 | 0.00 | 97 | 1020.8 |
| 20260507085503 | 8 | 99 | 0.0 | 0.0 | 0.00 | 0.64 | 0.00 | 97 | 1020.7 |
| 20260507085003 | 8 | 111 | 0.0 | 0.0 | 0.00 | 0.64 | 0.00 | 97 | 1020.5 |
| 20260507084503 | 8 | 270 | 0.0 | 0.0 | 0.00 | 0.64 | 0.00 | 96 | 1020.6 |
| 20260507084004 | 8 | 112 | 0.0 | 0.0 | 0.00 | 0.64 | 0.00 | 96 | 1020.5 |
| 20260507083503 | 8 | 112 | 0.0 | 0.0 | 0.00 | 0.64 | 0.00 | 96 | 1020.7 |
| 20260507083004 | 8 | 112 | 0.0 | 0.0 | 0.00 | 0.64 | 0.00 | 95 | 1020.5 |
| 20260507082504 | 8 | 130 | 0.0 | 1.6 | 0.00 | 0.64 | 0.00 | 95 | 1020.7 |
| 20260507082003 | 9 | 121 | 0.0 | 1.6 | 0.00 | 0.64 | 0.00 | 95 | 1020.7 |
| 20260507081506 | 9 | 140 | 0.0 | 1.6 | 0.00 | 0.64 | 0.00 | 95 | 1020.7 |
| 20260507081003 | 9 | 119 | 0.0 | 3.2 | 0.00 | 0.69 | 0.00 | 94 | 1020.6 |
| 20260507080503 | 9 | 126 | 0.0 | 3.2 | 0.00 | 0.71 | 0.00 | 94 | 1020.7 |
| 20260507080004 | 9 | 126 | 0.0 | 3.2 | 0.00 | 0.76 | 0.00 | 94 | 1020.5 |
| 20260507075503 | 9 | 121 | 1.6 | 3.2 | 0.00 | 0.81 | 0.00 | 94 | 1020.4 |
| 20260507075003 | 9 | 135 | 0.0 | 3.2 | 0.00 | 0.81 | 0.00 | 94 | 1020.5 |
| 20260507074506 | 9 | 170 | 1.6 | 3.2 | 0.00 | 0.81 | 0.00 | 94 | 1020.3 |
| 20260507073504 | 8 | 100 | 0.0 | 3.2 | 0.00 | 0.81 | 0.00 | 95 | 1020.3 |
| 20260507073003 | 8 | 135 | 0.0 | 0.0 | 0.00 | 0.81 | 0.00 | 95 | 1020.3 |
| 20260507072503 | 8 | 112 | 0.0 | 0.0 | 0.00 | 0.81 | 0.00 | 95 | 1020.4 |
| 20260507072004 | 8 | 90 | 0.0 | 0.0 | 0.00 | 0.81 | 0.00 | 95 | 1020.4 |
| 20260507071504 | 8 | 202 | 0.0 | 0.0 | 0.00 | 0.81 | 0.00 | 95 | 1020.2 |
| 20260507065003 | 8 | 127 | 0.0 | 3.2 | 0.00 | 0.81 | 0.00 | 95 | 1020.3 |
| 20260507064503 | 8 | 112 | 0.0 | 0.0 | 0.00 | 0.81 | 0.00 | 95 | 1020.3 |
| 20260507064003 | 8 | 135 | 0.0 | 1.6 | 0.00 | 0.81 | 0.00 | 95 | 1020.3 |
| 20260507063504 | 8 | 112 | 0.0 | 1.6 | 0.00 | 0.81 | 0.00 | 95 | 1020.3 |
| 20260507063003 | 8 | 178 | 0.0 | 1.6 | 0.00 | 0.81 | 0.00 | 95 | 1020.3 |
| 20260507062504 | 8 | 315 | 0.0 | 1.6 | 0.00 | 0.81 | 0.00 | 95 | 1020.2 |
| 20260507062003 | 8 | 112 | 0.0 | 1.6 | 0.00 | 0.81 | 0.00 | 96 | 1020.3 |
| 20260507061503 | 8 | 135 | 0.0 | 1.6 | 0.00 | 0.81 | 0.00 | 96 | 1020.2 |
| 20260507061006 | 8 | 135 | 0.0 | 1.6 | 0.00 | 0.81 | 0.00 | 97 | 1020.2 |
| 20260507060503 | 7 | 144 | 0.0 | 1.6 | 0.00 | 0.81 | 0.00 | 97 | 1020.0 |
| 20260507060004 | 7 | 112 | 0.0 | 1.6 | 0.00 | 0.81 | 0.00 | 97 | 1020.1 |
| 20260507055503 | 7 | 112 | 0.0 | 0.0 | 0.00 | 0.84 | 0.00 | 96 | 1020.0 |
| 20260507055004 | 7 | 112 | 0.0 | 0.0 | 0.00 | 0.84 | 0.00 | 96 | 1019.9 |
| 20260507054503 | 7 | 112 | 0.0 | 0.0 | 0.00 | 0.84 | 0.00 | 95 | 1019.9 |
| 20260507054006 | 8 | 112 | 0.0 | 0.0 | 0.00 | 0.84 | 0.00 | 95 | 1019.8 |
| 20260507053504 | 8 | 42 | 0.0 | 0.0 | 0.00 | 0.84 | 0.00 | 95 | 1019.6 |
| 20260507053004 | 8 | 22 | 0.0 | 0.0 | 0.00 | 0.84 | 0.00 | 94 | 1019.7 |
| 20260507052503 | 8 | 22 | 0.0 | 0.0 | 0.00 | 0.86 | 0.00 | 94 | 1019.8 |
| 20260507052004 | 8 | 112 | 0.0 | 3.2 | 0.00 | 0.86 | 0.00 | 93 | 1020.0 |
| 20260507051503 | 8 | 112 | 0.0 | 3.2 | 0.00 | 0.89 | 0.00 | 93 | 1019.9 |
| 20260507051006 | 8 | 112 | 1.6 | 4.8 | 0.00 | 0.94 | 0.00 | 94 | 1019.7 |
| 20260507050504 | 8 | 149 | 3.2 | 4.8 | 0.00 | 0.97 | 0.00 | 94 | 1019.5 |
| 20260507050005 | 8 | 135 | 3.2 | 4.8 | 0.00 | 0.97 | 0.00 | 96 | 1019.6 |
| 20260507045503 | 8 | 135 | 1.6 | 4.8 | 0.00 | 0.97 | 0.00 | 97 | 1019.5 |
| 20260507045003 | 7 | 288 | 1.6 | 4.8 | 0.00 | 0.97 | 0.00 | 97 | 1019.4 |
| 20260507044504 | 7 | 263 | 0.0 | 3.2 | 0.00 | 0.99 | 0.00 | 97 | 1019.5 |
| 20260507044006 | 7 | 225 | 0.0 | 3.2 | 0.00 | 1.04 | 0.00 | 97 | 1019.5 |
| 20260507043504 | 8 | 152 | 1.6 | 3.2 | 0.00 | 1.19 | 0.00 | 98 | 1019.3 |
| 20260507040004 | 8 | 144 | 1.6 | 1.6 | 0.00 | 1.70 | 0.00 | 97 | 1019.4 |
| 20260507031004 | 8 | 135 | 0.0 | 0.0 | 0.00 | 2.59 | 1.65 | 95 | 1019.0 |
| 20260507030504 | 8 | 147 | 0.0 | 3.2 | 0.00 | 2.62 | 1.65 | 94 | 1019.0 |
| 20260507030006 | 9 | 136 | 0.0 | 3.2 | 0.00 | 2.84 | 1.65 | 93 | 1019.0 |
| 20260507025503 | 10 | 131 | 1.6 | 4.8 | 0.00 | 3.00 | 1.65 | 95 | 1019.1 |
| 20260507025004 | 10 | 119 | 3.2 | 4.8 | 0.00 | 3.05 | 1.65 | 95 | 1019.0 |
| 20260507024504 | 9 | 121 | 0.0 | 1.6 | 0.00 | 3.10 | 1.65 | 93 | 1018.8 |
| 20260507022004 | 8 | 112 | 0.0 | 0.0 | 0.00 | 3.12 | 1.65 | 93 | 1018.7 |
| 20260507021504 | 9 | 134 | 0.0 | 3.2 | 0.00 | 3.12 | 1.65 | 92 | 1018.5 |
| 20260507021004 | 9 | 193 | 0.0 | 3.2 | 0.00 | 3.12 | 1.65 | 92 | 1018.3 |
| 20260507020504 | 9 | 101 | 0.0 | 3.2 | 0.00 | 3.12 | 1.65 | 93 | 1018.4 |
| 20260507020003 | 9 | 261 | 0.0 | 3.2 | 0.00 | 3.12 | 1.65 | 91 | 1018.3 |
| 20260507015504 | 10 | 248 | 0.0 | 3.2 | 0.00 | 3.12 | 1.65 | 89 | 1018.2 |
| 20260507015007 | 10 | 188 | 0.0 | 3.2 | 0.00 | 3.12 | 1.65 | 89 | 1018.3 |
| 20260507014504 | 10 | 169 | 0.0 | 3.2 | 0.00 | 3.12 | 1.65 | 89 | 1018.2 |
| 20260507014004 | 10 | 123 | 0.0 | 3.2 | 0.00 | 3.12 | 1.65 | 89 | 1018.1 |
| 20260507013004 | 10 | 199 | 0.0 | 4.8 | 0.00 | 3.12 | 1.65 | 88 | 1018.0 |
| 20260507012503 | 10 | 147 | 1.6 | 9.7 | 0.00 | 3.12 | 1.65 | 88 | 1017.9 |
| 20260507012007 | 10 | 116 | 3.2 | 12.9 | 0.00 | 3.12 | 1.65 | 88 | 1017.9 |
| 20260507011504 | 11 | 128 | 1.6 | 12.9 | 0.00 | 3.12 | 1.65 | 89 | 1017.9 |
| 20260507011004 | 11 | 182 | 3.2 | 12.9 | 0.00 | 3.12 | 1.65 | 88 | 1017.8 |
| 20260507010504 | 11 | 142 | 1.6 | 8.0 | 0.00 | 3.12 | 1.65 | 89 | 1017.8 |
| 20260507010004 | 11 | 59 | 0.0 | 8.0 | 0.00 | 3.12 | 1.65 | 89 | 1017.6 |
| 20260507005504 | 11 | 265 | 1.6 | 8.0 | 0.00 | 3.12 | 1.65 | 89 | 1017.7 |
| 20260507005007 | 11 | 122 | 1.6 | 8.0 | 0.00 | 3.12 | 1.65 | 88 | 1017.5 |
| 20260507004004 | 11 | 224 | 1.6 | 9.7 | 0.00 | 3.12 | 1.65 | 89 | 1017.2 |
| 20260507003004 | 10 | 107 | 0.0 | 4.8 | 0.00 | 3.12 | 1.65 | 91 | 1017.1 |
| 20260507002504 | 11 | 141 | 0.0 | 4.8 | 0.00 | 3.12 | 1.65 | 90 | 1017.0 |
| 20260507002004 | 11 | 181 | 0.0 | 3.2 | 0.00 | 3.12 | 1.65 | 90 | 1017.0 |
| 20260507001503 | 11 | 238 | 0.0 | 3.2 | 0.00 | 3.12 | 1.65 | 89 | 1016.8 |
| 20260507001004 | 11 | 281 | 0.0 | 3.2 | 0.00 | 3.12 | 1.65 | 89 | 1016.9 |
| 20260507000504 | 11 | 294 | 0.0 | 3.2 | 0.00 | 3.12 | 1.65 | 89 | 1016.9 |
| 20260507000004 | 11 | 248 | 0.0 | 3.2 | 0.00 | 3.12 | 1.65 | 88 | 1016.7 |
| 20260506235504 | 11 | 350 | 1.6 | 8.0 | 0.00 | 3.12 | 1.65 | 88 | 1016.8 |
| 20260506235004 | 11 | 261 | 1.6 | 9.7 | 0.00 | 3.12 | 1.65 | 87 | 1016.5 |
| 20260506234504 | 11 | 227 | 1.6 | 9.7 | 0.00 | 3.12 | 1.65 | 87 | 1016.5 |
| 20260506234004 | 11 | 244 | 1.6 | 9.7 | 0.00 | 3.12 | 1.65 | 86 | 1016.4 |
| 20260506233504 | 12 | 94 | 0.0 | 9.7 | 0.00 | 3.12 | 1.65 | 84 | 1016.3 |
| 20260506232504 | 12 | 202 | 0.0 | 4.8 | 0.00 | 3.12 | 1.65 | 86 | 1016.1 |
| 20260506232004 | 12 | 170 | 0.0 | 4.8 | 0.00 | 3.12 | 1.65 | 85 | 1016.3 |
| 20260506231504 | 12 | 213 | 3.2 | 8.0 | 0.00 | 3.12 | 1.65 | 85 | 1016.0 |
| 20260506231004 | 12 | 162 | 1.6 | 9.7 | 0.00 | 3.12 | 1.65 | 85 | 1015.9 |
| 20260506230503 | 12 | 162 | 3.2 | 9.7 | 0.00 | 3.12 | 1.65 | 85 | 1015.9 |
| 20260506230004 | 12 | 112 | 1.6 | 4.8 | 0.00 | 3.12 | 1.65 | 87 | 1015.6 |
| 20260506225504 | 12 | 198 | 1.6 | 4.8 | 0.00 | 3.12 | 1.65 | 85 | 1015.8 |
| 20260506225007 | 11 | 82 | 0.0 | 9.7 | 0.00 | 3.12 | 1.65 | 86 | 1015.7 |
| 20260506224504 | 11 | 61 | 1.6 | 9.7 | 0.00 | 3.12 | 1.65 | 87 | 1015.6 |
| 20260506224003 | 11 | 214 | 1.6 | 9.7 | 0.00 | 3.12 | 1.65 | 87 | 1015.7 |
| 20260506223504 | 11 | 225 | 0.0 | 1.6 | 0.00 | 3.12 | 1.65 | 87 | 1015.5 |
| 20260506223004 | 11 | 100 | 0.0 | 4.8 | 0.00 | 3.12 | 1.65 | 87 | 1015.4 |
| 20260506222504 | 11 | 118 | 0.0 | 4.8 | 0.00 | 3.12 | 1.65 | 87 | 1015.2 |
| 20260506222007 | 11 | 195 | 1.6 | 4.8 | 0.00 | 3.12 | 1.65 | 86 | 1015.2 |
| 20260506221504 | 12 | 95 | 1.6 | 9.7 | 0.00 | 3.12 | 1.65 | 86 | 1015.2 |
| 20260506221004 | 12 | 178 | 1.6 | 11.3 | 0.00 | 3.12 | 1.65 | 85 | 1014.9 |
| 20260506220504 | 12 | 246 | 1.6 | 11.3 | 0.00 | 3.12 | 1.65 | 85 | 1014.9 |
| 20260506220004 | 12 | 182 | 4.8 | 9.7 | 0.00 | 3.12 | 1.65 | 85 | 1015.0 |
| 20260506215503 | 12 | 248 | 1.6 | 8.0 | 0.00 | 3.12 | 1.65 | 85 | 1014.9 |
| 20260506215006 | 12 | 187 | 1.6 | 8.0 | 0.00 | 3.12 | 1.65 | 83 | 1014.6 |
| 20260506214504 | 12 | 252 | 1.6 | 8.0 | 0.00 | 3.12 | 1.65 | 83 | 1014.5 |
| 20260506214004 | 13 | 59 | 1.6 | 11.3 | 0.00 | 3.12 | 1.65 | 82 | 1014.5 |
| 20260506213505 | 13 | 94 | 1.6 | 11.3 | 0.00 | 3.12 | 1.65 | 82 | 1014.4 |
| 20260506213004 | 13 | 128 | 3.2 | 12.9 | 0.00 | 3.12 | 1.65 | 79 | 1014.3 |
| 20260506212503 | 13 | 55 | 3.2 | 12.9 | 0.00 | 3.12 | 1.65 | 79 | 1014.1 |
| 20260506212004 | 13 | 81 | 3.2 | 11.3 | 0.00 | 3.12 | 1.65 | 79 | 1014.0 |
| 20260506211507 | 13 | 248 | 3.2 | 9.7 | 0.00 | 3.12 | 1.65 | 79 | 1014.1 |
| 20260506211004 | 13 | 270 | 1.6 | 11.3 | 0.00 | 3.12 | 1.65 | 82 | 1014.1 |
| 20260506210503 | 13 | 192 | 1.6 | 11.3 | 0.00 | 3.12 | 1.65 | 82 | 1014.1 |
| 20260506210004 | 13 | 285 | 3.2 | 16.1 | 0.00 | 3.12 | 1.65 | 81 | 1014.0 |
| 20260506205503 | 13 | 225 | 3.2 | 16.1 | 0.00 | 3.12 | 1.65 | 81 | 1013.9 |
| 20260506205004 | 14 | 264 | 4.8 | 19.3 | 0.00 | 3.12 | 1.65 | 79 | 1013.9 |
| 20260506204504 | 14 | 193 | 3.2 | 19.3 | 0.00 | 3.12 | 1.65 | 78 | 1014.0 |
| 20260506204006 | 15 | 174 | 6.4 | 19.3 | 0.00 | 3.12 | 1.65 | 77 | 1013.9 |
| 20260506203503 | 15 | 302 | 4.8 | 12.9 | 0.00 | 3.12 | 1.65 | 77 | 1013.7 |
| 20260506203004 | 14 | 253 | 1.6 | 11.3 | 0.00 | 3.12 | 1.65 | 79 | 1013.7 |
| 20260506200504 | 15 | 62 | 4.8 | 14.5 | 0.00 | 3.12 | 1.65 | 75 | 1013.4 |
| 20260506200004 | 16 | 243 | 3.2 | 11.3 | 0.00 | 3.12 | 1.65 | 75 | 1013.2 |
| 20260506195504 | 15 | 238 | 3.2 | 12.9 | 0.00 | 3.12 | 1.65 | 76 | 1013.3 |
| 20260506195004 | 15 | 76 | 4.8 | 20.9 | 0.00 | 3.12 | 1.65 | 78 | 1013.2 |
| 20260506194503 | 15 | 259 | 4.8 | 20.9 | 0.00 | 3.12 | 1.65 | 78 | 1013.0 |
| 20260506194004 | 16 | 0 | 4.8 | 16.1 | 0.00 | 3.12 | 1.65 | 73 | 1012.9 |
| 20260506193504 | 17 | 305 | 4.8 | 12.9 | 0.00 | 3.12 | 1.65 | 72 | 1013.0 |
| 20260506193004 | 16 | 249 | 3.2 | 11.3 | 0.00 | 3.12 | 1.65 | 73 | 1012.8 |
| 20260506192504 | 15 | 270 | 1.6 | 11.3 | 0.00 | 3.12 | 1.65 | 75 | 1012.8 |
| 20260506192006 | 15 | 295 | 4.8 | 19.3 | 0.00 | 3.12 | 1.65 | 77 | 1012.8 |
| 20260506191504 | 15 | 249 | 4.8 | 19.3 | 0.00 | 3.12 | 1.65 | 75 | 1012.7 |
| 20260506191004 | 15 | 332 | 3.2 | 14.5 | 0.00 | 3.12 | 1.65 | 74 | 1012.6 |
| 20260506185504 | 16 | 147 | 4.8 | 14.5 | 0.00 | 3.12 | 1.65 | 73 | 1012.5 |
| 20260506185004 | 16 | 196 | 1.6 | 9.7 | 0.00 | 3.12 | 1.65 | 75 | 1012.2 |
| 20260506184504 | 15 | 267 | 3.2 | 12.9 | 0.00 | 3.12 | 1.65 | 78 | 1012.2 |
| 20260506184004 | 15 | 49 | 1.6 | 12.9 | 0.00 | 3.12 | 1.65 | 77 | 1012.2 |
| 20260506183503 | 15 | 120 | 3.2 | 12.9 | 0.00 | 3.12 | 1.65 | 78 | 1011.9 |
| 20260506183005 | 15 | 152 | 3.2 | 12.9 | 0.00 | 3.12 | 1.65 | 79 | 1011.8 |
| 20260506182503 | 15 | 173 | 4.8 | 12.9 | 0.00 | 3.12 | 1.65 | 77 | 1011.6 |
| 20260506182004 | 15 | 266 | 3.2 | 11.3 | 0.00 | 3.12 | 1.65 | 78 | 1011.5 |
| 20260506181504 | 15 | 261 | 3.2 | 16.1 | 0.00 | 3.12 | 1.65 | 79 | 1011.4 |
| 20260506181004 | 14 | 138 | 4.8 | 16.1 | 0.00 | 3.12 | 1.65 | 81 | 1011.5 |
| 20260506180503 | 14 | 294 | 4.8 | 12.9 | 0.00 | 3.12 | 1.65 | 80 | 1011.3 |
| 20260506180004 | 14 | 270 | 6.4 | 14.5 | 0.00 | 3.12 | 1.65 | 82 | 1011.1 |
| 20260506175504 | 14 | 241 | 4.8 | 14.5 | 0.00 | 3.12 | 1.65 | 83 | 1011.0 |
| 20260506175004 | 14 | 254 | 8.0 | 16.1 | 0.00 | 3.12 | 1.65 | 83 | 1011.0 |
| 20260506171004 | 13 | 193 | 4.8 | 12.9 | 0.00 | 3.12 | 1.65 | 87 | 1010.3 |
| 20260506170503 | 13 | 202 | 4.8 | 12.9 | 0.00 | 3.12 | 1.65 | 88 | 1010.4 |